FW3743 Weather Reports


time (UTC)temp
C
wind
direction
speed
KPH
gust
KPH
rain 1hr
cm
rain 24hr
cm
rain mn
cm
humidity
%
barometer
mb
20260507010433 7 0.0 0.0 0.00 2.41 1.57 96 1011.9
20260507005433 7 0.0 0.0 0.00 2.41 1.57 96 1011.9
20260507004433 7 0.0 0.0 0.00 2.44 1.57 96 1012.3
20260507003433 7 0.0 0.0 0.00 2.54 1.57 95 1011.7
20260507002453 7 0.0 0.0 0.00 2.67 1.57 95 1011.8
20260507001433 7 0.0 0.0 0.00 2.67 1.57 95 1011.5
20260507000435 7 0.0 0.0 0.00 2.67 1.57 95 1011.5
20260506235433 7 0.0 0.0 0.00 2.67 1.57 95 1011.3
20260506234453 7 0.0 0.0 0.00 2.67 1.57 94 1011.6
20260506233433 7 0.0 0.0 0.00 2.67 1.57 94 1010.9
20260506232433 7 0.0 0.0 0.00 2.67 1.57 94 1011.1
20260506231433 7 0.0 0.0 0.00 2.67 1.57 94 1010.8
20260506230434 7 0.0 0.0 0.00 2.67 1.57 94 1010.8
20260506225433 7 0.0 0.0 0.00 2.67 1.57 94 1010.1
20260506224433 7 0.0 0.0 0.00 2.67 1.57 93 1011.1
20260506223433 7 0.0 0.0 0.00 2.67 1.57 93 1011.0
20260506222433 7 0.0 0.0 0.00 2.67 1.57 93 1011.1
20260506221454 8 0.0 0.0 0.00 2.67 1.57 93 1010.9
20260506220435 8 0.0 0.0 0.00 2.67 1.57 93 1011.1
20260506215435 8 0.0 0.0 0.00 2.67 1.57 94 1010.7
20260506214434 8 0.0 0.0 0.00 2.67 1.57 95 1010.9
20260506213433 8 0.0 0.0 0.00 2.67 1.57 96 1010.5
20260506212433 7 0.0 0.0 0.00 2.77 1.57 96 1010.6
20260506211433 7 0.0 0.0 0.00 2.79 1.57 97 1010.5
20260506210433 7 0.0 0.0 0.00 2.79 1.57 98 1010.6
20260506205434 7 0.0 0.0 0.00 2.79 1.57 99 1010.2
20260506204433 7 0.0 0.0 0.00 2.79 1.57 99 1010.1
20260506203454 7 338 0.0 8.0 0.00 2.79 1.57 99 1010.0
20260506202433 7 0.0 0.0 0.00 2.79 1.57 99 1009.8
20260506201433 7 0.0 0.0 0.00 2.79 1.57 99 1009.5
20260506200433 7 0.0 0.0 0.00 2.79 1.57 99 1009.8
20260506195433 7 0.0 0.0 0.00 2.79 1.57 99 1009.9
20260506194433 7 0.0 0.0 0.00 2.79 1.57 99 1010.0
20260506193434 7 0.0 0.0 0.00 2.79 1.57 99 1009.8
20260506192433 7 0.0 0.0 0.00 2.79 1.57 99 1009.7
20260506191454 7 0.0 0.0 0.00 2.79 1.57 99 1009.6
20260506190433 7 0.0 0.0 0.00 2.79 1.57 99 1009.6
20260506185434 7 0.0 0.0 0.00 2.79 1.57 99 1009.4
20260506184433 7 0.0 0.0 0.00 2.79 1.57 99 1009.6
20260506183453 7 0.0 0.0 0.00 2.79 1.57 99 1009.5
20260506182433 7 0.0 0.0 0.00 2.79 1.57 99 1009.2
20260506181514 7 0.0 0.0 0.00 2.79 1.57 99 1009.0
20260506180433 7 0.0 0.0 0.00 2.82 1.57 99 1009.0
20260506175433 7 0.0 0.0 0.00 2.90 1.57 99 1008.8
20260506174433 7 0.0 0.0 0.00 2.90 1.57 99 1009.0
20260506173434 7 0.0 0.0 0.00 2.90 1.57 99 1008.7
20260506172433 7 0.0 0.0 0.00 2.90 1.57 99 1008.8
20260506171433 8 0.0 0.0 0.00 2.90 1.57 99 1008.5
20260506170433 7 0.0 0.0 0.00 2.90 1.57 99 1008.6
20260506165434 8 0.0 0.0 0.00 2.90 1.57 99 1008.3
20260506164433 7 0.0 0.0 0.03 2.90 1.57 99 1008.8
20260506163433 7 0.0 0.0 0.05 2.90 1.57 99 1008.5
20260506162433 8 0.0 0.0 0.05 2.90 1.57 99 1008.7
20260506161433 7 0.0 0.0 0.03 2.87 1.55 99 1008.8
20260506160433 7 0.0 0.0 0.03 2.87 1.55 99 1009.0
20260506155434 7 0.0 0.0 0.05 2.87 1.55 99 1008.9
20260506154453 7 0.0 0.0 0.03 2.84 1.52 99 1009.1
20260506153434 7 0.0 0.0 0.05 2.82 1.50 99 1008.9
20260506152433 7 0.0 0.0 0.05 2.82 1.50 99 1009.3
20260506151434 7 0.0 0.0 0.05 2.82 1.50 99 1008.6
20260506150433 7 0.0 0.0 0.08 2.82 1.50 99 1008.9
20260506145434 7 0.0 0.0 0.08 2.79 1.47 99 1008.5
20260506144433 7 0.0 0.0 0.13 2.79 1.47 99 1008.5
20260506143434 7 0.0 0.0 0.10 2.77 1.45 99 1008.3
20260506142433 7 0.0 0.0 0.13 2.74 1.42 99 1008.8
20260506141434 7 0.0 0.0 0.18 2.74 1.42 99 1008.3
20260506140433 7 0.0 0.0 0.20 2.72 1.40 99 1008.7
20260506135434 6 0.0 0.0 0.25 2.69 1.37 99 1008.7
20260506134433 6 0.0 0.0 0.30 2.67 1.35 99 1009.0
20260506133434 7 0.0 0.0 0.36 2.64 1.32 99 1008.9
20260506132433 7 0.0 0.0 0.38 2.59 1.27 99 1009.0
20260506131454 7 0.0 0.0 0.38 2.54 1.22 99 1009.0
20260506130433 7 0.0 0.0 0.36 2.49 1.17 99 1009.0
20260506125454 6 0.0 0.0 0.30 2.44 1.12 99 1009.0
20260506124433 6 0.0 0.0 0.23 2.36 1.04 99 1009.0
20260506123434 6 0.0 0.0 0.18 2.29 0.97 99 1008.8
20260506122453 7 0.0 0.0 0.13 2.21 0.89 99 1008.8
20260506121434 6 0.0 0.0 0.10 2.16 0.84 99 1008.4
20260506120433 7 0.0 0.0 0.13 2.13 0.81 99 1009.0
20260506115434 6 0.0 0.0 0.13 2.11 0.79 99 1008.9
20260506114453 7 0.0 0.0 0.18 2.11 0.79 99 1009.5
20260506113434 7 0.0 0.0 0.18 2.08 0.76 99 1008.8
20260506112433 7 0.0 0.0 0.20 2.06 0.74 99 1009.5
20260506111435 7 0.0 0.0 0.18 2.03 0.71 99 1009.5
20260506110433 7 0.0 0.0 0.20 1.98 0.66 99 1009.6
20260506105434 7 0.0 0.0 0.18 1.96 0.64 99 1008.9
20260506104434 7 0.0 0.0 0.15 1.91 0.58 99 1009.3
20260506103435 7 0.0 0.0 0.15 1.88 0.56 99 1009.3
20260506102433 7 0.0 0.0 0.13 1.85 0.53 99 1009.3
20260506101454 6 0.0 0.0 0.18 1.85 0.53 99 1008.8
20260506100513 6 0.0 0.0 0.13 1.78 0.46 99 1009.4
20260506095434 6 0.0 0.0 0.18 1.78 0.46 99 1008.7
20260506094433 6 0.0 0.0 0.18 1.75 0.43 99 1009.3
20260506093434 6 0.0 0.0 0.15 1.73 0.41 99 1009.3
20260506092433 6 0.0 0.0 0.15 1.70 0.38 99 1010.1
20260506091434 6 0.0 0.0 0.15 1.68 0.36 99 1009.8
20260506090433 6 0.0 0.0 0.15 1.63 0.30 99 1009.9
20260506085434 7 0.0 0.0 0.15 1.57 0.25 99 1009.2
20260506084433 7 0.0 0.0 0.13 1.55 0.23 99 1009.9
20260506083455 7 0.0 0.0 0.13 1.55 0.23 99 1009.7
20260506082433 7 0.0 0.0 0.10 1.55 0.20 99 1010.0
20260506081435 7 0.0 0.0 0.08 1.52 0.18 99 1010.3
20260506080433 7 0.0 0.0 0.03 1.47 0.13 99 1009.8
20260506073434 8 0.0 0.0 0.00 1.42 0.08 99 1009.1
20260506072433 8 0.0 0.0 0.00 1.42 0.08 99 1009.3
20260506071434 8 0.0 0.0 0.00 1.42 0.08 99 1009.4
20260506070433 8 0.0 0.0 0.03 1.42 0.08 99 1009.6
20260506062433 8 0.0 0.0 0.03 1.42 0.08 99 1009.6
20260506061434 8 0.0 0.0 0.03 1.42 0.08 99 1009.6
20260506060433 8 0.0 0.0 0.00 1.37 0.03 99 1010.0
20260506050433 8 0.0 0.0 0.03 1.37 0.03 99 1010.9
20260506044433 8 0.0 0.0 0.15 1.37 0.03 99 1010.9
20260506043454 8 0.0 0.0 0.23 1.37 0.03 99 1010.8
20260506042433 8 0.0 0.0 0.28 1.37 0.03 99 1010.7
20260506041455 8 0.0 0.0 0.30 1.35 0.00 99 1010.7
20260506040433 8 0.0 0.0 0.36 1.35 0.00 99 1010.8
20260506035434 8 0.0 0.0 0.38 1.32 1.32 99 1011.2
20260506034433 8 0.0 0.0 0.28 1.22 1.22 99 1011.6
20260506033454 8 0.0 0.0 0.23 1.12 1.12 99 1011.2
20260506032433 8 0.0 0.0 0.20 1.09 1.09 99 1011.0
20260506031434 8 0.0 0.0 0.20 1.04 1.04 99 1011.4
20260506030433 8 0.0 0.0 0.20 0.99 0.99 99 1011.1
20260506025434 8 0.0 0.0 0.20 0.94 0.94 99 1011.4
20260506024434 8 0.0 0.0 0.23 0.91 0.91 99 1011.5
20260506023434 8 0.0 0.0 0.23 0.89 0.89 99 1011.1
20260506022433 8 0.0 0.0 0.30 0.86 0.86 99 1011.3
20260506021454 8 0.0 0.0 0.28 0.81 0.81 99 1011.5
20260506020433 9 0.0 0.0 0.28 0.76 0.76 99 1010.9
20260506015454 8 0.0 0.0 0.23 0.71 0.71 99 1011.4
20260506014433 8 0.0 0.0 0.20 0.66 0.66 99 1011.0
20260506013434 8 0.0 0.0 0.28 0.66 0.66 99 1010.8
20260506012433 8 0.0 0.0 0.30 0.56 0.56 99 1011.2
20260506011434 9 0.0 0.0 0.28 0.51 0.51 99 1011.0